User: anonymous   Login
Location: Unspecified
(0.0000°N, 0.0000°E)
Time: 03:38:31
(UTC+00:00)
Language:

STSS DEMO 1 (USA 208) - Orbit

View from above orbital plane
View from above orbital plane
View from above satellite
View from above satellite

Ground track
Ground track

The orbit data is extracted from the following two-line orbital elements,

1 35937U 09052A   21134.92298763 0.00000000  00000-0  00000-0 0    03
2 35937  57.9918 122.8827 0012160 330.6897  29.3103 12.79340940    01
Epoch (UTC): 14 May 2021 22:09:06
Eccentricity: 0.0012160
inclination: 57.9918°
perigee height: 1335 km
apogee height: 1353 km
right ascension of ascending node: 122.8827°
argument of perigee: 330.6897°
revolutions per day: 12.79340940
mean anomaly at epoch: 29.3103°
orbit number at epoch: 0

The dashed part of the orbit path shows where the satellite is in the earth's shadow,  

DLR